Year,Month,Day,Hour,Minute,Value (Times are PST for windspeed in km/hr)
2011,07,06,00,00,1.60
2011,07,06,00,01,2.50
2011,07,06,00,02,1.30
2011,07,06,00,03,1.80
2011,07,06,00,04,1.90
2011,07,06,00,05,1.90
2011,07,06,00,06,2.60
2011,07,06,00,07,6.20
2011,07,06,00,08,2.90
2011,07,06,00,09,4.20
2011,07,06,00,10,1.60
2011,07,06,00,11,5.70
2011,07,06,00,12,4.30
2011,07,06,00,13,4.50
2011,07,06,00,14,3.10
2011,07,06,00,15,3.50
2011,07,06,00,16,7.60
2011,07,06,00,17,5.80
2011,07,06,00,18,4.00
2011,07,06,00,19,5.20
2011,07,06,00,20,6.80
2011,07,06,00,21,3.00
2011,07,06,00,22,3.90
2011,07,06,00,23,3.80
2011,07,06,00,24,4.30
2011,07,06,00,25,4.90
2011,07,06,00,26,4.70
2011,07,06,00,27,7.90
2011,07,06,00,28,8.50
2011,07,06,00,29,6.30
2011,07,06,00,30,5.70
2011,07,06,00,31,6.40
2011,07,06,00,32,5.60
2011,07,06,00,33,6.20
2011,07,06,00,34,3.50
2011,07,06,00,35,4.50
2011,07,06,00,36,3.00
2011,07,06,00,37,3.30
2011,07,06,00,38,1.90
2011,07,06,00,39,0.20
2011,07,06,00,40,3.40
2011,07,06,00,41,3.90
2011,07,06,00,42,3.10
2011,07,06,00,43,2.50
2011,07,06,00,44,4.30
2011,07,06,00,45,5.00
2011,07,06,00,46,5.60
2011,07,06,00,47,4.10
2011,07,06,00,48,6.10
2011,07,06,00,49,1.70
2011,07,06,00,50,2.80
2011,07,06,00,51,2.80
2011,07,06,00,52,2.70
2011,07,06,00,53,1.60
2011,07,06,00,54,2.10
2011,07,06,00,55,2.00
2011,07,06,00,56,3.90
2011,07,06,00,57,3.90
2011,07,06,00,58,3.70
2011,07,06,00,59,2.40
2011,07,06,01,00,3.90
2011,07,06,01,01,2.20
2011,07,06,01,02,0.20
2011,07,06,01,03,0.10
2011,07,06,01,04,1.40
2011,07,06,01,05,2.20
2011,07,06,01,06,1.60
2011,07,06,01,07,1.90
2011,07,06,01,08,0.60
2011,07,06,01,09,0.20
2011,07,06,01,10,2.90
2011,07,06,01,11,1.80
2011,07,06,01,12,2.10
2011,07,06,01,13,0.60
2011,07,06,01,14,1.00
2011,07,06,01,15,2.50
2011,07,06,01,16,1.20
2011,07,06,01,17,3.10
2011,07,06,01,18,1.80
2011,07,06,01,19,0.20
2011,07,06,01,20,1.10
2011,07,06,01,21,0.10
2011,07,06,01,22,0.00
2011,07,06,01,23,0.00
2011,07,06,01,24,0.20
2011,07,06,01,25,1.40
2011,07,06,01,26,0.90
2011,07,06,01,27,0.10
2011,07,06,01,28,0.00
2011,07,06,01,29,1.50
2011,07,06,01,30,0.40
2011,07,06,01,31,0.30
2011,07,06,01,32,0.90
2011,07,06,01,33,0.10
2011,07,06,01,34,1.10
2011,07,06,01,35,3.90
2011,07,06,01,36,5.50
2011,07,06,01,37,3.10
2011,07,06,01,38,0.70
2011,07,06,01,39,0.20
2011,07,06,01,40,1.20
2011,07,06,01,41,1.60
2011,07,06,01,42,0.20
2011,07,06,01,43,1.50
2011,07,06,01,44,2.40
2011,07,06,01,45,3.60
2011,07,06,01,46,4.40
2011,07,06,01,47,1.90
2011,07,06,01,48,2.40
2011,07,06,01,49,0.20
2011,07,06,01,50,0.10
2011,07,06,01,51,0.80
2011,07,06,01,52,1.40
2011,07,06,01,53,0.90
2011,07,06,01,54,0.20
2011,07,06,01,55,1.10
2011,07,06,01,56,1.20
2011,07,06,01,57,1.80
2011,07,06,01,58,0.90
2011,07,06,01,59,3.20
2011,07,06,02,00,4.10
2011,07,06,02,01,4.30
2011,07,06,02,02,3.80
2011,07,06,02,03,3.80
2011,07,06,02,04,4.40
2011,07,06,02,05,4.60
2011,07,06,02,06,3.20
2011,07,06,02,07,4.30
2011,07,06,02,08,2.90
2011,07,06,02,09,2.90
2011,07,06,02,10,3.10
2011,07,06,02,11,2.50
2011,07,06,02,12,0.90
2011,07,06,02,13,2.70
2011,07,06,02,14,2.70
2011,07,06,02,15,3.50
2011,07,06,02,16,5.80
2011,07,06,02,17,3.10
2011,07,06,02,18,1.90
2011,07,06,02,19,3.90
2011,07,06,02,20,3.50
2011,07,06,02,21,1.00
2011,07,06,02,22,3.40
2011,07,06,02,23,4.30
2011,07,06,02,24,2.20
2011,07,06,02,25,2.50
2011,07,06,02,26,2.70
2011,07,06,02,27,4.10
2011,07,06,02,28,4.20
2011,07,06,02,29,4.90
2011,07,06,02,30,5.10
2011,07,06,02,31,5.20
2011,07,06,02,32,5.30
2011,07,06,02,33,5.90
2011,07,06,02,34,4.10
2011,07,06,02,35,5.10
2011,07,06,02,36,4.10
2011,07,06,02,37,0.60
2011,07,06,02,38,0.60
2011,07,06,02,39,2.60
2011,07,06,02,40,3.10
2011,07,06,02,41,3.90
2011,07,06,02,42,3.80
2011,07,06,02,43,4.80
2011,07,06,02,44,4.30
2011,07,06,02,45,3.60
2011,07,06,02,46,1.50
2011,07,06,02,47,3.10
2011,07,06,02,48,1.40
2011,07,06,02,49,2.10
2011,07,06,02,50,2.60
2011,07,06,02,51,3.40
2011,07,06,02,52,1.40
2011,07,06,02,53,3.10
2011,07,06,02,54,4.50
2011,07,06,02,55,2.20
2011,07,06,02,56,1.70
2011,07,06,02,57,1.70
2011,07,06,02,58,3.20
2011,07,06,02,59,1.20
2011,07,06,03,00,2.80
2011,07,06,03,01,3.20
2011,07,06,03,02,3.60
2011,07,06,03,03,3.40
2011,07,06,03,04,0.40
2011,07,06,03,05,0.10
2011,07,06,03,06,0.10
2011,07,06,03,07,0.20
2011,07,06,03,08,1.00
2011,07,06,03,09,1.40
2011,07,06,03,10,0.20
2011,07,06,03,11,0.60
2011,07,06,03,12,0.90
2011,07,06,03,13,0.80
2011,07,06,03,14,1.40
2011,07,06,03,15,0.20
2011,07,06,03,16,0.60
2011,07,06,03,17,3.20
2011,07,06,03,18,2.10
2011,07,06,03,19,0.80
2011,07,06,03,20,1.50
2011,07,06,03,21,0.30
2011,07,06,03,22,0.20
2011,07,06,03,23,0.90
2011,07,06,03,24,1.20
2011,07,06,03,25,0.00
2011,07,06,03,26,0.20
2011,07,06,03,27,0.40
2011,07,06,03,28,0.20
2011,07,06,03,29,4.60
2011,07,06,03,30,2.00
2011,07,06,03,31,0.10
2011,07,06,03,32,1.10
2011,07,06,03,33,0.10
2011,07,06,03,34,0.70
2011,07,06,03,35,0.30
2011,07,06,03,36,0.30
2011,07,06,03,37,1.50
2011,07,06,03,38,3.60
2011,07,06,03,39,1.10
2011,07,06,03,40,3.30
2011,07,06,03,41,3.50
2011,07,06,03,42,0.00
2011,07,06,03,43,1.30
2011,07,06,03,44,0.20
2011,07,06,03,45,1.30
2011,07,06,03,46,0.00
2011,07,06,03,47,0.20
2011,07,06,03,48,2.80
2011,07,06,03,49,0.20
2011,07,06,03,50,0.00
2011,07,06,03,51,0.00
2011,07,06,03,52,0.10
2011,07,06,03,53,0.10
2011,07,06,03,54,0.00
2011,07,06,03,55,0.10
2011,07,06,03,56,0.00
2011,07,06,03,57,0.10
2011,07,06,03,58,2.50
2011,07,06,03,59,1.40
2011,07,06,04,00,1.00
2011,07,06,04,01,0.00
2011,07,06,04,02,0.10
2011,07,06,04,03,0.10
2011,07,06,04,04,1.30
2011,07,06,04,05,1.20
2011,07,06,04,06,1.20
2011,07,06,04,07,1.30
2011,07,06,04,08,0.30
2011,07,06,04,09,0.10
2011,07,06,04,10,0.10
2011,07,06,04,11,0.00
2011,07,06,04,12,0.10
2011,07,06,04,13,0.20
2011,07,06,04,14,0.80
2011,07,06,04,15,0.00
2011,07,06,04,16,0.10
2011,07,06,04,17,0.20
2011,07,06,04,18,1.70
2011,07,06,04,19,1.90
2011,07,06,04,20,0.10
2011,07,06,04,21,0.10
2011,07,06,04,22,0.20
2011,07,06,04,23,0.70
2011,07,06,04,24,1.40
2011,07,06,04,25,1.80
2011,07,06,04,26,0.20
2011,07,06,04,27,0.00
2011,07,06,04,28,0.20
2011,07,06,04,29,0.00
2011,07,06,04,30,0.30
2011,07,06,04,31,0.10
2011,07,06,04,32,0.10
2011,07,06,04,33,0.00
2011,07,06,04,34,0.00
2011,07,06,04,35,0.00
2011,07,06,04,36,0.00
2011,07,06,04,37,0.00
2011,07,06,04,38,0.00
2011,07,06,04,39,0.00
2011,07,06,04,40,0.10
2011,07,06,04,41,0.00
2011,07,06,04,42,0.10
2011,07,06,04,43,0.00
2011,07,06,04,44,0.00
2011,07,06,04,45,0.00
2011,07,06,04,46,0.10
2011,07,06,04,47,0.00
2011,07,06,04,48,0.10
2011,07,06,04,49,0.10
2011,07,06,04,50,0.10
2011,07,06,04,51,0.90
2011,07,06,04,52,0.60
2011,07,06,04,53,1.40
2011,07,06,04,54,0.00
2011,07,06,04,55,1.00
2011,07,06,04,56,0.60
2011,07,06,04,57,2.40
2011,07,06,04,58,3.70
2011,07,06,04,59,2.30
2011,07,06,05,00,0.20
2011,07,06,05,01,0.60
2011,07,06,05,02,0.20
2011,07,06,05,03,2.80
2011,07,06,05,04,2.00
2011,07,06,05,05,0.80
2011,07,06,05,06,3.60
2011,07,06,05,07,3.20
2011,07,06,05,08,3.40
2011,07,06,05,09,2.80
2011,07,06,05,10,1.60
2011,07,06,05,11,1.60
2011,07,06,05,12,0.20
2011,07,06,05,13,2.40
2011,07,06,05,14,4.20
2011,07,06,05,15,4.40
2011,07,06,05,16,3.90
2011,07,06,05,17,4.00
2011,07,06,05,18,3.80
2011,07,06,05,19,1.00
2011,07,06,05,20,0.20
2011,07,06,05,21,0.20
2011,07,06,05,22,0.10
2011,07,06,05,23,0.10
2011,07,06,05,24,0.10
2011,07,06,05,25,1.00
2011,07,06,05,26,1.50
2011,07,06,05,27,0.10
2011,07,06,05,28,0.90
2011,07,06,05,29,1.00
2011,07,06,05,30,0.50
2011,07,06,05,31,1.00
2011,07,06,05,32,0.10
2011,07,06,05,33,1.00
2011,07,06,05,34,0.30
2011,07,06,05,35,0.20
2011,07,06,05,36,0.00
2011,07,06,05,37,0.00
2011,07,06,05,38,0.00
2011,07,06,05,39,0.10
2011,07,06,05,40,0.20
2011,07,06,05,41,0.10
2011,07,06,05,42,0.00
2011,07,06,05,43,0.10
2011,07,06,05,44,0.20
2011,07,06,05,45,0.00
2011,07,06,05,46,0.00
2011,07,06,05,47,0.00
2011,07,06,05,48,0.00
2011,07,06,05,49,0.00
2011,07,06,05,50,0.00
2011,07,06,05,51,0.00
2011,07,06,05,52,0.00
2011,07,06,05,53,0.00
2011,07,06,05,54,0.00
2011,07,06,05,55,0.00
2011,07,06,05,56,0.00
2011,07,06,05,57,0.00
2011,07,06,05,58,0.00
2011,07,06,05,59,0.00
2011,07,06,06,00,0.00
2011,07,06,06,01,0.00
2011,07,06,06,02,0.00
2011,07,06,06,03,0.00
2011,07,06,06,04,0.00
2011,07,06,06,05,0.00
2011,07,06,06,06,0.00
2011,07,06,06,07,0.00
2011,07,06,06,08,0.00
2011,07,06,06,09,0.00
2011,07,06,06,10,0.00
2011,07,06,06,11,0.00
2011,07,06,06,12,0.00
2011,07,06,06,13,0.00
2011,07,06,06,14,0.00
2011,07,06,06,15,0.00
2011,07,06,06,16,0.00
2011,07,06,06,17,0.00
2011,07,06,06,18,0.10
2011,07,06,06,19,0.00
2011,07,06,06,20,0.00
2011,07,06,06,21,0.30
2011,07,06,06,22,0.10
2011,07,06,06,23,0.20
2011,07,06,06,24,0.60
2011,07,06,06,25,0.00
2011,07,06,06,26,0.00
2011,07,06,06,27,0.00
2011,07,06,06,28,0.00
2011,07,06,06,29,0.10
2011,07,06,06,30,0.00
2011,07,06,06,31,0.00
2011,07,06,06,32,0.00
2011,07,06,06,33,0.00
2011,07,06,06,34,0.00
2011,07,06,06,35,0.00
2011,07,06,06,36,0.00
2011,07,06,06,37,0.10
2011,07,06,06,38,0.00
2011,07,06,06,39,0.00
2011,07,06,06,40,0.00
2011,07,06,06,41,0.10
2011,07,06,06,42,0.00
2011,07,06,06,43,0.00
2011,07,06,06,44,0.10
2011,07,06,06,45,0.00
2011,07,06,06,46,0.00
2011,07,06,06,47,0.00
2011,07,06,06,48,0.00
2011,07,06,06,49,0.00
2011,07,06,06,50,0.00
2011,07,06,06,51,0.10
2011,07,06,06,52,0.00
2011,07,06,06,53,0.00
2011,07,06,06,54,0.00
2011,07,06,06,55,0.00
2011,07,06,06,56,0.00
2011,07,06,06,57,0.00
2011,07,06,06,58,0.00
2011,07,06,06,59,0.00
2011,07,06,07,00,0.00
2011,07,06,07,01,0.00
2011,07,06,07,02,0.00
2011,07,06,07,03,0.00
2011,07,06,07,04,0.00
2011,07,06,07,05,0.00
2011,07,06,07,06,0.00
2011,07,06,07,07,0.00
2011,07,06,07,08,0.00
2011,07,06,07,09,0.00
2011,07,06,07,10,0.00
2011,07,06,07,11,0.00
2011,07,06,07,12,0.00
2011,07,06,07,13,0.00
2011,07,06,07,14,0.00
2011,07,06,07,15,0.00
2011,07,06,07,16,0.10
2011,07,06,07,17,0.30
2011,07,06,07,18,0.00
2011,07,06,07,19,0.10
2011,07,06,07,20,0.00
2011,07,06,07,21,0.10
2011,07,06,07,22,0.20
2011,07,06,07,23,0.10
2011,07,06,07,24,0.30
2011,07,06,07,25,0.60
2011,07,06,07,26,0.80
2011,07,06,07,27,0.70
2011,07,06,07,28,2.70
2011,07,06,07,29,0.40
2011,07,06,07,30,0.00
2011,07,06,07,31,0.10
2011,07,06,07,32,0.10
2011,07,06,07,33,0.00
2011,07,06,07,34,0.90
2011,07,06,07,35,1.50
2011,07,06,07,36,0.10
2011,07,06,07,37,0.00
2011,07,06,07,38,0.10
2011,07,06,07,39,0.00
2011,07,06,07,40,0.10
2011,07,06,07,41,1.30
2011,07,06,07,42,3.50
2011,07,06,07,43,0.50
2011,07,06,07,44,1.00
2011,07,06,07,45,1.40
2011,07,06,07,46,0.00
2011,07,06,07,47,0.20
2011,07,06,07,48,0.20
2011,07,06,07,49,1.00
2011,07,06,07,50,0.00
2011,07,06,07,51,0.40
2011,07,06,07,52,1.50
2011,07,06,07,53,0.10
2011,07,06,07,54,1.40
2011,07,06,07,55,3.30
2011,07,06,07,56,2.30
2011,07,06,07,57,4.10
2011,07,06,07,58,1.40
2011,07,06,07,59,0.20
2011,07,06,08,00,0.10
2011,07,06,08,01,0.70
2011,07,06,08,02,0.90
2011,07,06,08,03,1.90
2011,07,06,08,04,0.10
2011,07,06,08,05,1.20
2011,07,06,08,06,0.60
2011,07,06,08,07,0.30
2011,07,06,08,08,0.30
2011,07,06,08,09,1.60
2011,07,06,08,10,3.80
2011,07,06,08,11,2.00
2011,07,06,08,12,2.70
2011,07,06,08,13,0.20
2011,07,06,08,14,0.10
2011,07,06,08,15,1.00
2011,07,06,08,16,1.60
2011,07,06,08,17,0.30
2011,07,06,08,18,0.20
2011,07,06,08,19,0.10
2011,07,06,08,20,0.30
2011,07,06,08,21,0.40
2011,07,06,08,22,0.40
2011,07,06,08,23,0.10
2011,07,06,08,24,0.60
2011,07,06,08,25,1.20
2011,07,06,08,26,2.70
2011,07,06,08,27,0.30
2011,07,06,08,28,1.80
2011,07,06,08,29,1.30
2011,07,06,08,30,1.00
2011,07,06,08,31,3.60
2011,07,06,08,32,3.90
2011,07,06,08,33,3.10
2011,07,06,08,34,5.60
2011,07,06,08,35,3.40
2011,07,06,08,36,2.40
2011,07,06,08,37,0.50
2011,07,06,08,38,3.50
2011,07,06,08,39,3.00
2011,07,06,08,40,1.90
2011,07,06,08,41,0.20
2011,07,06,08,42,1.20
2011,07,06,08,43,1.30
2011,07,06,08,44,1.60
2011,07,06,08,45,1.60
2011,07,06,08,46,1.40
2011,07,06,08,47,3.70
2011,07,06,08,48,4.20
2011,07,06,08,49,3.80
2011,07,06,08,50,1.90
2011,07,06,08,51,0.60
2011,07,06,08,52,2.60
2011,07,06,08,53,1.90
2011,07,06,08,54,1.90
2011,07,06,08,55,2.60
2011,07,06,08,56,2.20
2011,07,06,08,57,3.00
2011,07,06,08,58,1.00
2011,07,06,08,59,2.30
2011,07,06,09,00,2.70
2011,07,06,09,01,1.80
2011,07,06,09,02,2.80
2011,07,06,09,03,1.20
2011,07,06,09,04,3.50
2011,07,06,09,05,4.30
2011,07,06,09,06,3.20
2011,07,06,09,07,0.80
2011,07,06,09,08,1.90
2011,07,06,09,09,2.70
2011,07,06,09,10,2.80
2011,07,06,09,11,0.70
2011,07,06,09,12,1.60
2011,07,06,09,13,2.50
2011,07,06,09,14,1.80
2011,07,06,09,15,0.20
2011,07,06,09,16,1.10
2011,07,06,09,17,1.90
2011,07,06,09,18,0.50
2011,07,06,09,19,1.40
2011,07,06,09,20,5.80
2011,07,06,09,21,3.50
2011,07,06,09,22,2.80
2011,07,06,09,23,0.70
2011,07,06,09,24,0.00
2011,07,06,09,25,0.70
2011,07,06,09,26,2.40
2011,07,06,09,27,1.40
2011,07,06,09,28,2.80
2011,07,06,09,29,3.10
2011,07,06,09,30,3.70
2011,07,06,09,31,1.40
2011,07,06,09,32,0.30
2011,07,06,09,33,0.30
2011,07,06,09,34,0.90
2011,07,06,09,35,1.30
2011,07,06,09,36,3.20
2011,07,06,09,37,0.70
2011,07,06,09,38,1.50
2011,07,06,09,39,0.90
2011,07,06,09,40,3.10
2011,07,06,09,41,5.90
2011,07,06,09,42,3.00
2011,07,06,09,43,2.40
2011,07,06,09,44,3.20
2011,07,06,09,45,5.40
2011,07,06,09,46,3.30
2011,07,06,09,47,2.10
2011,07,06,09,48,0.40
2011,07,06,09,49,0.20
2011,07,06,09,50,0.00
2011,07,06,09,51,0.80
2011,07,06,09,52,0.70
2011,07,06,09,53,0.90
2011,07,06,09,54,0.10
2011,07,06,09,55,0.00
2011,07,06,09,56,0.30
2011,07,06,09,57,0.20
2011,07,06,09,58,1.00
2011,07,06,09,59,1.40
2011,07,06,10,00,0.80
2011,07,06,10,01,0.80
2011,07,06,10,02,0.70
2011,07,06,10,03,1.00
2011,07,06,10,04,0.40
2011,07,06,10,05,1.40
2011,07,06,10,06,1.00
2011,07,06,10,07,2.20
2011,07,06,10,08,2.40
2011,07,06,10,09,2.50
2011,07,06,10,10,0.30
2011,07,06,10,11,1.50
2011,07,06,10,12,1.40
2011,07,06,10,13,4.30
2011,07,06,10,14,4.80
2011,07,06,10,15,1.70
2011,07,06,10,16,0.10
2011,07,06,10,17,0.70
2011,07,06,10,18,0.00
2011,07,06,10,19,0.80
2011,07,06,10,20,3.20
2011,07,06,10,21,1.30
2011,07,06,10,22,1.00
2011,07,06,10,23,3.40
2011,07,06,10,24,3.90
2011,07,06,10,25,2.90
2011,07,06,10,26,1.80
2011,07,06,10,27,4.30
2011,07,06,10,28,1.00
2011,07,06,10,29,1.40
2011,07,06,10,30,3.90
2011,07,06,10,31,1.00
2011,07,06,10,32,4.20
2011,07,06,10,33,4.00
2011,07,06,10,34,3.20
2011,07,06,10,35,3.00
2011,07,06,10,36,3.10
2011,07,06,10,37,1.00
2011,07,06,10,38,0.70
2011,07,06,10,39,2.60
2011,07,06,10,40,1.20
2011,07,06,10,41,1.20
2011,07,06,10,42,1.30
2011,07,06,10,43,1.10
2011,07,06,10,44,0.50
2011,07,06,10,45,1.10
2011,07,06,10,46,0.90
2011,07,06,10,47,1.60
2011,07,06,10,48,3.30
2011,07,06,10,49,0.80
2011,07,06,10,50,0.40
2011,07,06,10,51,2.20
2011,07,06,10,52,1.40
2011,07,06,10,53,0.60
2011,07,06,10,54,2.80
2011,07,06,10,55,3.60
2011,07,06,10,56,0.70
2011,07,06,10,57,1.00
2011,07,06,10,58,0.40
2011,07,06,10,59,1.90
2011,07,06,11,00,0.40
2011,07,06,11,01,1.20
2011,07,06,11,02,0.10
2011,07,06,11,03,0.40
2011,07,06,11,04,0.60
2011,07,06,11,05,0.60
2011,07,06,11,06,1.00
2011,07,06,11,07,2.10
2011,07,06,11,08,3.50
2011,07,06,11,09,4.20
2011,07,06,11,10,2.50
2011,07,06,11,11,3.50
2011,07,06,11,12,0.20
2011,07,06,11,13,5.00
2011,07,06,11,14,4.60
2011,07,06,11,15,5.70
2011,07,06,11,16,0.90
2011,07,06,11,17,5.30
2011,07,06,11,18,2.50
2011,07,06,11,19,2.00
2011,07,06,11,20,3.60
2011,07,06,11,21,2.00
2011,07,06,11,22,1.50
2011,07,06,11,23,0.30
2011,07,06,11,24,3.30
2011,07,06,11,25,1.50
2011,07,06,11,26,1.90
2011,07,06,11,27,0.10
2011,07,06,11,28,0.30
2011,07,06,11,29,0.90
2011,07,06,11,30,0.60
2011,07,06,11,31,0.80
2011,07,06,11,32,0.30
2011,07,06,11,33,2.40
2011,07,06,11,34,3.00
2011,07,06,11,35,3.30
2011,07,06,11,36,4.10
2011,07,06,11,37,2.70
2011,07,06,11,38,2.90
2011,07,06,11,39,2.10
2011,07,06,11,40,1.90
2011,07,06,11,41,2.30
2011,07,06,11,42,1.30
2011,07,06,11,43,0.60
2011,07,06,11,44,3.90
2011,07,06,11,45,2.60
2011,07,06,11,46,2.20
2011,07,06,11,47,2.00
2011,07,06,11,48,1.80
2011,07,06,11,49,1.60
2011,07,06,11,50,3.90
2011,07,06,11,51,1.80
2011,07,06,11,52,1.00
2011,07,06,11,53,0.10
2011,07,06,11,54,4.70
2011,07,06,11,55,4.20
2011,07,06,11,56,1.50
2011,07,06,11,57,1.90
2011,07,06,11,58,0.20
2011,07,06,11,59,0.50
2011,07,06,12,00,1.40
2011,07,06,12,01,3.10
2011,07,06,12,02,4.20
2011,07,06,12,03,3.50
2011,07,06,12,04,3.30
2011,07,06,12,05,3.60
2011,07,06,12,06,4.50
2011,07,06,12,07,2.00
2011,07,06,12,08,1.80
2011,07,06,12,09,4.10
2011,07,06,12,10,1.50
2011,07,06,12,11,1.30
2011,07,06,12,12,0.30
2011,07,06,12,13,1.10
2011,07,06,12,14,1.90
2011,07,06,12,15,0.80
2011,07,06,12,16,0.20
2011,07,06,12,17,0.60
2011,07,06,12,18,5.20
2011,07,06,12,19,3.80
2011,07,06,12,20,3.00
2011,07,06,12,21,6.10
2011,07,06,12,22,3.20
2011,07,06,12,23,2.70
2011,07,06,12,24,1.40
2011,07,06,12,25,1.60
2011,07,06,12,26,5.20
2011,07,06,12,27,2.80
2011,07,06,12,28,1.40
2011,07,06,12,29,3.90
2011,07,06,12,30,2.00
2011,07,06,12,31,0.20
2011,07,06,12,32,2.20
2011,07,06,12,33,3.60
2011,07,06,12,34,2.80
2011,07,06,12,35,4.10
2011,07,06,12,36,0.30
2011,07,06,12,37,1.00
2011,07,06,12,38,0.20
2011,07,06,12,39,1.20
2011,07,06,12,40,0.50
2011,07,06,12,41,0.30
2011,07,06,12,42,2.10
2011,07,06,12,43,5.20
2011,07,06,12,44,5.60
2011,07,06,12,45,1.30
2011,07,06,12,46,0.50
2011,07,06,12,47,1.70
2011,07,06,12,48,1.20
2011,07,06,12,49,0.20
2011,07,06,12,50,0.30
2011,07,06,12,51,1.80
2011,07,06,12,52,1.10
2011,07,06,12,53,1.40
2011,07,06,12,54,0.30
2011,07,06,12,55,0.20
2011,07,06,12,56,0.50
2011,07,06,12,57,0.10
2011,07,06,12,58,0.60
2011,07,06,12,59,2.30
2011,07,06,13,00,1.00
2011,07,06,13,01,3.20
2011,07,06,13,02,3.60
2011,07,06,13,03,4.50
2011,07,06,13,04,3.50
2011,07,06,13,05,3.20
2011,07,06,13,06,1.80
2011,07,06,13,07,4.10
2011,07,06,13,08,4.20
2011,07,06,13,09,1.30
2011,07,06,13,10,2.20
2011,07,06,13,11,2.10
2011,07,06,13,12,3.30
2011,07,06,13,13,4.70
2011,07,06,13,14,4.60
2011,07,06,13,15,2.20
2011,07,06,13,16,0.70
2011,07,06,13,17,1.60
2011,07,06,13,18,1.60
2011,07,06,13,19,1.50
2011,07,06,13,20,0.10
2011,07,06,13,21,0.60
2011,07,06,13,22,1.60
2011,07,06,13,23,2.00
2011,07,06,13,24,0.50
2011,07,06,13,25,0.20
2011,07,06,13,26,1.50
2011,07,06,13,27,2.30
2011,07,06,13,28,0.60
2011,07,06,13,29,1.60
2011,07,06,13,30,0.60
2011,07,06,13,31,1.00
2011,07,06,13,32,0.30
2011,07,06,13,33,1.40
2011,07,06,13,34,1.50
2011,07,06,13,35,2.70
2011,07,06,13,36,2.60
2011,07,06,13,37,2.10
2011,07,06,13,38,0.70
2011,07,06,13,39,2.40
2011,07,06,13,40,1.80
2011,07,06,13,41,2.50
2011,07,06,13,42,1.70
2011,07,06,13,43,2.30
2011,07,06,13,44,5.50
2011,07,06,13,45,4.50
2011,07,06,13,46,3.10
2011,07,06,13,47,2.60
2011,07,06,13,48,2.70
2011,07,06,13,49,3.10
2011,07,06,13,50,1.70
2011,07,06,13,51,4.40
2011,07,06,13,52,5.10
2011,07,06,13,53,3.70
2011,07,06,13,54,3.50
2011,07,06,13,55,0.50
2011,07,06,13,56,1.10
2011,07,06,13,57,0.80
2011,07,06,13,58,0.20
2011,07,06,13,59,1.40
2011,07,06,14,00,2.00
2011,07,06,14,01,4.50
2011,07,06,14,02,2.20
2011,07,06,14,03,0.60
2011,07,06,14,04,1.00
2011,07,06,14,05,0.80
2011,07,06,14,06,0.60
2011,07,06,14,07,0.20
2011,07,06,14,08,0.30
2011,07,06,14,09,0.60
2011,07,06,14,10,0.90
2011,07,06,14,11,0.50
2011,07,06,14,12,3.40
2011,07,06,14,13,1.20
2011,07,06,14,14,3.00
2011,07,06,14,15,1.90
2011,07,06,14,16,3.70
2011,07,06,14,17,5.10
2011,07,06,14,18,3.50
2011,07,06,14,19,3.20
2011,07,06,14,20,5.20
2011,07,06,14,21,4.30
2011,07,06,14,22,2.40
2011,07,06,14,23,0.50
2011,07,06,14,24,3.10
2011,07,06,14,25,0.70
2011,07,06,14,26,2.40
2011,07,06,14,27,1.20
2011,07,06,14,28,0.60
2011,07,06,14,29,2.20
2011,07,06,14,30,0.20
2011,07,06,14,31,5.80
2011,07,06,14,32,3.20
2011,07,06,14,33,0.10
2011,07,06,14,34,1.10
2011,07,06,14,35,0.90
2011,07,06,14,36,2.20
2011,07,06,14,37,2.30
2011,07,06,14,38,4.70
2011,07,06,14,39,9.00
2011,07,06,14,40,6.00
2011,07,06,14,41,6.80
2011,07,06,14,42,6.90
2011,07,06,14,43,4.40
2011,07,06,14,44,5.20
2011,07,06,14,45,4.30
2011,07,06,14,46,3.90
2011,07,06,14,47,3.40
2011,07,06,14,48,1.40
2011,07,06,14,49,0.90
2011,07,06,14,50,4.30
2011,07,06,14,51,11.90
2011,07,06,14,52,7.10
2011,07,06,14,53,5.10
2011,07,06,14,54,6.40
2011,07,06,14,55,4.90
2011,07,06,14,56,4.20
2011,07,06,14,57,3.50
2011,07,06,14,58,4.70
2011,07,06,14,59,5.40
2011,07,06,15,00,5.60
2011,07,06,15,01,3.70
2011,07,06,15,02,3.30
2011,07,06,15,03,3.90
2011,07,06,15,04,5.60
2011,07,06,15,05,8.00
2011,07,06,15,06,4.70
2011,07,06,15,07,3.70
2011,07,06,15,08,9.20
2011,07,06,15,09,5.40
2011,07,06,15,10,4.70
2011,07,06,15,11,3.10
2011,07,06,15,12,2.60
2011,07,06,15,13,2.00
2011,07,06,15,14,1.10
2011,07,06,15,15,4.40
2011,07,06,15,16,5.70
2011,07,06,15,17,4.50
2011,07,06,15,18,3.00
2011,07,06,15,19,2.30
2011,07,06,15,20,4.10
2011,07,06,15,21,6.00
2011,07,06,15,22,6.40
2011,07,06,15,23,5.00
2011,07,06,15,24,4.90
2011,07,06,15,25,2.70
2011,07,06,15,26,2.80
2011,07,06,15,27,9.80
2011,07,06,15,28,5.40
2011,07,06,15,29,7.10
2011,07,06,15,30,9.20
2011,07,06,15,31,7.20
2011,07,06,15,32,2.30
2011,07,06,15,33,3.50
2011,07,06,15,34,3.90
2011,07,06,15,35,7.50
2011,07,06,15,36,4.40
2011,07,06,15,37,7.60
2011,07,06,15,38,9.60
2011,07,06,15,39,8.00
2011,07,06,15,40,9.70
2011,07,06,15,41,6.40
2011,07,06,15,42,3.10
2011,07,06,15,43,1.30
2011,07,06,15,44,0.60
2011,07,06,15,45,2.20
2011,07,06,15,46,2.10
2011,07,06,15,47,1.40
2011,07,06,15,48,3.50
2011,07,06,15,49,3.10
2011,07,06,15,50,3.10
2011,07,06,15,51,5.80
2011,07,06,15,52,3.70
2011,07,06,15,53,3.60
2011,07,06,15,54,2.20
2011,07,06,15,55,2.50
2011,07,06,15,56,6.50
2011,07,06,15,57,6.40
2011,07,06,15,58,2.80
2011,07,06,15,59,6.70
2011,07,06,16,00,1.70
2011,07,06,16,01,2.50
2011,07,06,16,02,0.30
2011,07,06,16,03,2.80
2011,07,06,16,04,6.20
2011,07,06,16,05,6.80
2011,07,06,16,06,9.80
2011,07,06,16,07,5.10
2011,07,06,16,08,3.60
2011,07,06,16,09,0.20
2011,07,06,16,10,0.60
2011,07,06,16,11,3.00
2011,07,06,16,12,7.20
2011,07,06,16,13,2.50
2011,07,06,16,14,2.50
2011,07,06,16,15,3.70
2011,07,06,16,16,2.60
2011,07,06,16,17,1.40
2011,07,06,16,18,9.40
2011,07,06,16,19,7.70
2011,07,06,16,20,6.30
2011,07,06,16,21,5.40
2011,07,06,16,22,2.30
2011,07,06,16,23,3.90
2011,07,06,16,24,1.70
2011,07,06,16,25,1.30
2011,07,06,16,26,1.90
2011,07,06,16,27,8.00
2011,07,06,16,28,8.50
2011,07,06,16,29,7.50
2011,07,06,16,30,7.50
2011,07,06,16,31,10.20
2011,07,06,16,32,7.70
2011,07,06,16,33,3.90
2011,07,06,16,34,3.80
2011,07,06,16,35,3.40
2011,07,06,16,36,3.10
2011,07,06,16,37,3.60
2011,07,06,16,38,5.70
2011,07,06,16,39,1.40
2011,07,06,16,40,7.20
2011,07,06,16,41,3.20
2011,07,06,16,42,3.90
2011,07,06,16,43,2.30
2011,07,06,16,44,3.60
2011,07,06,16,45,3.50
2011,07,06,16,46,1.80
2011,07,06,16,47,3.70
2011,07,06,16,48,3.80
2011,07,06,16,49,3.20
2011,07,06,16,50,4.90
2011,07,06,16,51,5.90
2011,07,06,16,52,6.70
2011,07,06,16,53,10.40
2011,07,06,16,54,9.30
2011,07,06,16,55,7.70
2011,07,06,16,56,6.10
2011,07,06,16,57,7.70
2011,07,06,16,58,10.70
2011,07,06,16,59,6.90
2011,07,06,17,00,11.80
2011,07,06,17,01,5.60
2011,07,06,17,02,6.40
2011,07,06,17,03,8.60
2011,07,06,17,04,7.60
2011,07,06,17,05,5.20
2011,07,06,17,06,3.70
2011,07,06,17,07,8.80
2011,07,06,17,08,7.60
2011,07,06,17,09,10.60
2011,07,06,17,10,10.40
2011,07,06,17,11,7.30
2011,07,06,17,12,8.70
2011,07,06,17,13,12.20
2011,07,06,17,14,6.10
2011,07,06,17,15,8.40
2011,07,06,17,16,5.00
2011,07,06,17,17,5.90
2011,07,06,17,18,9.70
2011,07,06,17,19,10.90
2011,07,06,17,20,11.50
2011,07,06,17,21,2.20
2011,07,06,17,22,6.50
2011,07,06,17,23,8.80
2011,07,06,17,24,15.60
2011,07,06,17,25,9.10
2011,07,06,17,26,9.50
2011,07,06,17,27,12.30
2011,07,06,17,28,10.20
2011,07,06,17,29,5.70
2011,07,06,17,30,6.10
2011,07,06,17,31,6.70
2011,07,06,17,32,7.00
2011,07,06,17,33,8.50
2011,07,06,17,34,10.80
2011,07,06,17,35,10.10
2011,07,06,17,36,10.10
2011,07,06,17,37,7.30
2011,07,06,17,38,8.80
2011,07,06,17,39,14.30
2011,07,06,17,40,10.30
2011,07,06,17,41,10.30
2011,07,06,17,42,10.40
2011,07,06,17,43,3.90
2011,07,06,17,44,8.50
2011,07,06,17,45,8.70
2011,07,06,17,46,6.40
2011,07,06,17,47,8.60
2011,07,06,17,48,6.50
2011,07,06,17,49,3.10
2011,07,06,17,50,5.70
2011,07,06,17,51,15.90
2011,07,06,17,52,9.10
2011,07,06,17,53,9.60
2011,07,06,17,54,17.50
2011,07,06,17,55,12.60
2011,07,06,17,56,11.00
2011,07,06,17,57,14.20
2011,07,06,17,58,15.90
2011,07,06,17,59,11.30
2011,07,06,18,00,12.50
2011,07,06,18,01,14.80
2011,07,06,18,02,7.10
2011,07,06,18,03,15.30
2011,07,06,18,04,11.80
2011,07,06,18,05,12.80